Location: Mohawk View
(42.7837°N, 73.7885°W)
Time: 09:14:48
(UTC+00:00)

Meteor 1-24 Rocket - Pass Details

Date: 27 October 2021
Orbit: 790 x 927 km, 81.3° (Epoch: 27 November)

Event Time Altitude Azimuth Distance (km) Brightness Sun altitude
Rises 08:42:46 0° 141° (SE) 3,289 7.1 -30.0°
Reaches altitude 10° 08:45:58 10° 121° (ESE) 2,379 6.6 -29.4°
Maximum altitude 08:49:11 16° 84° (E) 1,990 6.4 -28.8°
Drops below altitude 10° 08:52:28 10° 47° (NE) 2,432 6.7 -28.2°
Sets 08:55:46 0° 27° (NNE) 3,397 7.3 -27.6°
